Location: Ladrillo (historical)
(32.8195°N, 117.2231°W)
Time: 00:32:29
(UTC+00:00)

Courier 1B - Pass Details

Date: 13 March 2021
Orbit: 963 x 1209 km, 28.3° (Epoch: 15 April)

Event Time Altitude Azimuth Distance (km) Brightness Sun altitude
Rises 12:34:41 0° 253° (WSW) 3,877 - -19.0°
Reaches altitude 10° 12:37:33 10° 250° (WSW) 2,882 - -18.4°
Exits shadow 12:40:22 25° 241° (WSW) 1,960 8.5 -17.8°
Maximum altitude 12:44:23 57° 173° (S) 1,186 7.9 -17.0°
Drops below altitude 10° 12:50:50 10° 97° (E) 2,732 11.1 -15.6°
Sets 12:53:29 0° 93° (E) 3,660 12.3 -15.1°
